Stations météo

réclame
Mon MeteoGroup
Gotska sandoen, Suède (2589): Température de l'air & dewpoint: 08.08.2020 07:00:00 - 14.08.2020 07:00:00 (CEST)Gotska sandoen, Suède (2589): Vitesse du vent & gusts: 08.08.2020 07:00:00 - 14.08.2020 07:00:00 (CEST)Gotska sandoen, Suède (2589): Direction du vent: 08.08.2020 07:00:00 - 14.08.2020 07:00:00 (CEST)Gotska sandoen, Suède (2589): reduced air pressure: 08.08.2020 07:00:00 - 14.08.2020 07:00:00 (CEST)Gotska sandoen, Suède (2589): visibility: 08.08.2020 07:00:00 - 14.08.2020 07:00:00 (CEST)Gotska sandoen, Suède (2589): Quantités de précipitations: 08.08.2020 07:00:00 - 14.08.2020 07:00:00 (CEST)
Date & Time tt [°C] td [°C] ff [km/h] ff [knt] fx [km/h] fx [knt] dd ppp [hPa] vv [km] rr [mm]
14.08.2020 07:00:00 - - - - - - - - - -
14.08.2020 06:00:00 16,0 15,2 10 6 16 9 S 1016,0 44 0,0
14.08.2020 05:00:00 15,4 14,6 10 5 16 8 S 1016,3 33 0,0
14.08.2020 04:00:00 15,0 14,2 10 5 14 8 SSE 1016,4 35 0,0
14.08.2020 03:00:00 15,2 14,4 9 5 14 8 S 1016,7 38 0,0
14.08.2020 02:00:00 15,3 14,5 8 4 12 6 SE 1016,9 32 0,0
14.08.2020 01:00:00 15,3 14,3 8 4 13 7 SE 1017,0 30 0,0
14.08.2020 00:00:00 15,8 14,7 9 5 14 8 ESE 1017,1 34 0,0
13.08.2020 23:00:00 15,7 14,4 6 3 11 6 SE 1017,1 39 0,0
13.08.2020 22:00:00 15,6 14,3 6 3 14 8 SE 1017,3 37 0,0
13.08.2020 21:00:00 16,6 14,6 10 5 14 8 ESE 1017,0 45 0,0
13.08.2020 20:00:00 17,8 15,2 8 4 16 8 E 1016,8 48 0,0
13.08.2020 19:00:00 18,6 15,7 9 5 16 8 E 1016,7 50 0,0
13.08.2020 18:00:00 19,0 15,7 9 5 18 10 E 1016,7 46 0,0
13.08.2020 17:00:00 19,6 15,7 10 5 23 12 E 1016,9 46 0,0
13.08.2020 16:00:00 21,2 15,7 11 6 23 12 ENE 1017,0 50 0,0
13.08.2020 15:00:00 20,9 15,7 10 6 18 10 NE 1017,0 46 0,0
13.08.2020 14:00:00 22,4 15,7 9 5 19 10 NNE 1017,2 37 0,0
13.08.2020 13:00:00 22,9 15,5 10 5 19 10 N 1017,0 44 0,0
13.08.2020 12:00:00 22,5 16,1 13 7 27 15 NW 1016,8 34 0,0
13.08.2020 11:00:00 22,2 16,0 11 6 29 16 WNW 1016,7 33 0,0
13.08.2020 10:00:00 20,2 16,4 17 9 34 18 W 1016,6 32 0,0
13.08.2020 09:00:00 19,6 16,4 19 10 37 20 W 1016,6 33 0,0
13.08.2020 08:00:00 18,9 15,4 26 14 42 23 W 1016,6 43 0,0
13.08.2020 07:00:00 17,8 15,2 23 13 46 25 W 1017,1 39 0,0
13.08.2020 06:00:00 17,4 15,7 22 12 38 21 WSW 1017,3 37 1,6
13.08.2020 05:00:00 17,9 15,2 24 13 44 24 WSW 1017,5 46 0,0
13.08.2020 04:00:00 18,0 14,9 24 13 41 22 W 1018,2 50 0,0
13.08.2020 03:00:00 17,7 14,6 22 12 40 21 W 1018,5 47 0,0
13.08.2020 02:00:00 17,8 14,9 22 12 39 21 WSW 1019,0 50 0,0
13.08.2020 01:00:00 17,9 14,6 21 11 35 19 WSW 1019,4 50 0,0
13.08.2020 00:00:00 17,7 14,4 17 9 31 17 WSW 1019,6 50 0,0
12.08.2020 23:00:00 17,8 14,1 19 10 32 17 WSW 1019,7 50 0,0
12.08.2020 22:00:00 17,7 13,6 19 10 31 17 WSW 1020,2 50 0,0
12.08.2020 21:00:00 17,7 12,8 18 10 29 16 WSW 1020,8 50 0,0
12.08.2020 20:00:00 18,0 12,2 16 9 29 16 WSW 1021,1 50 0,0
12.08.2020 19:00:00 18,4 11,7 16 9 31 17 SW 1021,5 50 0,0
12.08.2020 18:00:00 19,3 12,1 16 9 29 16 SW 1022,3 50 0,0
12.08.2020 17:00:00 19,2 11,2 16 9 26 14 SW 1022,7 50 0,0
12.08.2020 16:00:00 19,8 11,3 12 6 24 13 WSW 1023,1 49 0,0
12.08.2020 15:00:00 20,8 10,6 13 7 23 13 WSW 1023,6 47 0,0
12.08.2020 14:00:00 20,8 10,6 13 7 21 11 WSW 1024,0 46 0,0
12.08.2020 13:00:00 20,8 10,6 10 5 23 12 WSW 1024,4 47 0,0
12.08.2020 12:00:00 20,0 10,4 13 7 21 12 WSW 1024,6 42 0,0
12.08.2020 11:00:00 20,4 10,8 8 4 15 8 W 1024,8 47 0,0
12.08.2020 10:00:00 19,3 10,8 6 3 12 7 NNW 1024,9 41 0,0
12.08.2020 09:00:00 18,3 10,9 5 3 9 5 N 1024,9 50 0,0
12.08.2020 08:00:00 17,4 11,0 5 3 8 5 N 1025,1 50 0,0
12.08.2020 07:00:00 14,7 11,3 3 1 6 3 NW 1025,2 50 0,0
12.08.2020 06:00:00 11,7 10,1 0 0 5 3 N 1025,3 50 0,0
12.08.2020 05:00:00 11,1 9,7 - - 4 2 - 1025,5 50 0,0
12.08.2020 04:00:00 11,4 9,5 - - 4 2 - 1025,8 50 0,0
12.08.2020 03:00:00 11,5 8,9 4 2 9 5 E 1025,7 50 0,0
12.08.2020 02:00:00 12,2 8,7 6 3 15 8 E 1025,8 50 0,0
12.08.2020 01:00:00 13,4 9,3 7 4 18 10 ENE 1025,6 50 0,0
12.08.2020 00:00:00 14,5 9,3 9 5 21 11 ENE 1025,5 50 0,0
11.08.2020 23:00:00 15,5 9,8 11 6 23 13 ENE 1025,2 50 0,0
11.08.2020 22:00:00 15,2 9,5 10 5 22 12 ENE 1025,1 50 0,0
11.08.2020 21:00:00 15,9 9,6 11 6 23 12 ENE 1025,3 50 0,0
11.08.2020 20:00:00 16,5 10,4 12 6 22 12 ENE 1025,3 50 0,0
11.08.2020 19:00:00 17,0 10,4 11 6 25 14 ENE 1025,4 50 0,0
11.08.2020 18:00:00 17,9 11,2 11 6 23 13 ENE 1025,7 50 0,0
11.08.2020 17:00:00 18,8 11,1 11 6 23 12 NE 1025,7 49 0,0
11.08.2020 16:00:00 21,1 12,0 13 7 27 15 ENE 1025,8 50 0,0
11.08.2020 15:00:00 22,6 13,6 13 7 26 14 NE 1025,8 37 0,0
11.08.2020 14:00:00 22,3 13,6 13 7 27 14 ENE 1025,9 45 0,0
11.08.2020 13:00:00 22,4 14,8 11 6 21 12 NE 1025,7 40 0,0
11.08.2020 12:00:00 20,4 15,0 9 5 22 12 NE 1025,6 46 0,0
11.08.2020 11:00:00 19,6 14,4 9 5 22 12 NNE 1025,8 41 0,0
11.08.2020 10:00:00 19,5 14,1 10 5 20 11 NNE 1025,4 39 0,0
11.08.2020 09:00:00 17,8 13,1 9 5 20 11 NNE 1025,3 48 0,0
11.08.2020 08:00:00 - - - - 23 12 - - - -
11.08.2020 07:00:00 - - - - 23 13 - - - -
11.08.2020 06:00:00 - - - - - - - - - -
11.08.2020 05:00:00 - - - - - - - - - -
11.08.2020 04:00:00 - - - - - - - - - -
11.08.2020 03:00:00 - - - - - - - - - -
11.08.2020 02:00:00 - - - - - - - - - -
11.08.2020 01:00:00 - - - - - - - - - -
11.08.2020 00:00:00 - - - - - - - - - -
10.08.2020 23:00:00 - - - - - - - - - -
10.08.2020 22:00:00 16,8 14,1 12 7 27 15 ENE 1024,2 49 0,0
10.08.2020 21:00:00 16,9 14,4 13 7 29 15 NE 1024,0 48 0,0
10.08.2020 20:00:00 17,2 14,3 13 7 28 15 NE 1023,9 47 0,0
10.08.2020 19:00:00 17,7 13,8 13 7 26 14 NE 1023,9 50 0,0
10.08.2020 18:00:00 18,4 13,3 12 7 31 17 NE 1023,7 50 0,0
10.08.2020 17:00:00 18,9 13,1 14 8 27 15 NE 1023,8 45 0,0
10.08.2020 16:00:00 21,0 13,8 13 7 25 13 NE 1024,0 47 0,0
10.08.2020 15:00:00 22,3 13,6 13 7 28 15 NE 1024,2 36 0,0
10.08.2020 14:00:00 23,2 15,3 13 7 26 14 NE 1024,4 45 0,0
10.08.2020 13:00:00 23,6 15,4 12 7 23 13 NE 1024,3 45 0,0
10.08.2020 12:00:00 21,9 13,8 11 6 22 12 NE 1024,2 39 0,0
10.08.2020 11:00:00 21,2 13,6 13 7 28 15 NE 1024,1 32 0,0
10.08.2020 10:00:00 19,7 14,1 15 8 27 15 NE 1023,7 43 0,0
10.08.2020 09:00:00 19,0 13,8 15 8 29 16 NE 1023,4 46 0,0
10.08.2020 08:00:00 18,6 13,7 13 7 29 15 NE 1023,4 42 0,0
10.08.2020 07:00:00 17,8 13,5 15 8 30 16 NE 1023,1 38 0,0
10.08.2020 06:00:00 17,3 12,8 15 8 36 19 NE 1022,8 44 0,0
10.08.2020 05:00:00 17,0 13,1 16 9 34 18 ENE 1022,6 46 0,0
10.08.2020 04:00:00 16,9 13,2 14 8 29 15 NE 1022,7 47 0,0
10.08.2020 03:00:00 16,7 13,2 13 7 30 16 NE 1022,7 42 0,0
10.08.2020 02:00:00 16,8 13,3 13 7 26 14 NE 1022,8 50 0,0
10.08.2020 01:00:00 17,0 14,5 12 6 25 13 NE 1022,8 41 0,0
10.08.2020 00:00:00 16,9 14,9 14 7 29 15 NE 1022,7 34 0,0
09.08.2020 23:00:00 17,0 15,2 13 7 26 14 NE 1022,4 31 0,0
09.08.2020 22:00:00 17,2 15,5 13 7 29 16 ENE 1022,2 29 0,0
09.08.2020 21:00:00 17,3 15,5 16 8 31 17 NE 1022,0 31 0,0
09.08.2020 20:00:00 17,8 15,8 16 8 34 18 NE 1021,5 29 0,0
09.08.2020 19:00:00 18,3 16,1 16 9 31 17 ENE 1021,1 30 0,0
09.08.2020 18:00:00 18,9 15,9 16 8 30 16 ENE 1021,1 36 0,0
09.08.2020 17:00:00 19,9 16,5 15 8 31 17 ENE 1021,2 37 0,0
09.08.2020 16:00:00 21,6 16,6 15 8 28 15 ENE 1021,4 38 0,0
09.08.2020 15:00:00 22,3 17,0 13 7 26 14 NE 1021,5 35 0,0
09.08.2020 14:00:00 21,5 16,9 14 7 24 13 NE 1021,7 41 0,0
09.08.2020 13:00:00 23,0 17,2 14 7 23 12 NE 1021,5 31 0,0
09.08.2020 12:00:00 24,3 18,2 8 4 15 8 N 1021,5 28 0,0
09.08.2020 11:00:00 23,7 17,9 10 5 19 11 WSW 1020,9 26 0,0
09.08.2020 10:00:00 22,6 17,7 12 7 19 11 WSW 1020,8 28 0,0
09.08.2020 09:00:00 21,8 17,4 8 4 14 8 SW 1020,6 31 0,0
09.08.2020 08:00:00 21,4 17,8 7 4 11 6 WSW 1020,8 35 0,0
09.08.2020 07:00:00 19,6 17,4 8 4 13 7 WSW 1020,7 28 0,0
09.08.2020 06:00:00 18,5 17,2 10 6 16 8 WSW 1020,5 23 0,0
09.08.2020 05:00:00 18,1 16,9 11 6 16 8 SW 1020,5 20 0,0
09.08.2020 04:00:00 18,4 17,1 11 6 16 9 SW 1020,5 21 0,0
09.08.2020 03:00:00 18,6 17,1 11 6 17 9 SW 1020,6 28 0,0
09.08.2020 02:00:00 19,1 17,1 11 6 18 10 SW 1020,8 31 0,0
09.08.2020 01:00:00 19,5 17,1 11 6 21 12 SSW 1020,8 39 0,0
09.08.2020 00:00:00 19,8 16,4 13 7 23 13 SSW 1021,0 48 0,0
08.08.2020 23:00:00 19,8 15,9 14 8 24 13 S 1020,9 50 0,0
08.08.2020 22:00:00 19,5 15,8 16 9 22 12 S 1021,2 49 0,0
08.08.2020 21:00:00 19,7 15,3 16 8 22 12 S 1021,3 48 0,0
08.08.2020 20:00:00 20,5 15,7 11 6 22 12 S 1021,5 50 0,0
08.08.2020 19:00:00 22,3 14,9 14 8 27 15 S 1021,7 50 0,0
08.08.2020 18:00:00 24,2 13,7 17 9 28 15 S 1022,0 50 0,0
08.08.2020 17:00:00 25,1 13,9 16 8 29 16 S 1022,4 41 0,0
08.08.2020 16:00:00 25,8 13,5 12 7 32 17 S 1022,7 50 0,0
08.08.2020 15:00:00 26,5 13,6 16 9 35 19 S 1023,1 41 0,0
08.08.2020 14:00:00 27,4 13,7 15 8 36 20 S 1023,6 37 0,0
08.08.2020 13:00:00 26,8 13,5 13 7 30 16 S 1023,9 44 0,0
08.08.2020 12:00:00 26,5 13,3 17 9 28 15 S 1024,2 45 0,0
08.08.2020 11:00:00 26,5 13,3 13 7 28 15 S 1024,5 36 0,0
08.08.2020 10:00:00 25,4 12,9 12 6 23 13 S 1024,8 35 0,0
08.08.2020 09:00:00 24,6 11,5 14 7 26 14 SSW 1025,0 45 0,0
08.08.2020 08:00:00 22,1 11,8 8 4 18 10 S 1025,4 50 0,0
08.08.2020 07:00:00 20,5 12,7 9 5 21 11 S 1025,5 50 0,0

tt = Température de l'air
td = dewpoint
ff = Vitesse du vent
fx = gusts
dd = Direction du vent
ppp = reduced air pressure
vv = visibility
rr = Quantités de précipitations

stations d'obs. à proximité